CGNBR EGBJ-EGHP

Flight info

Callsign CGNBR
Flight time 0h 34m
Altitude 2500
Route EGBJ EGBW EGOC EGHP
Aircraft C82R/L-V/N

Departure

Time 2026-05-06 12:21
Airport Gloucestershire Airport (EGBJ)

Arrival

Time 2026-05-06 12:55
Airport Popham Airfield (EGHP)
Time Latitude Longitude Altitude Speed Heading
2026-05-06 11:57 51.89167 -2.15862 97 ft 0 kts 59°
2026-05-06 11:57 51.89167 -2.15861 97 ft 0 kts 59°
2026-05-06 11:58 51.89167 -2.15862 97 ft 0 kts 59°
2026-05-06 11:59 51.89167 -2.15861 97 ft 0 kts 59°
2026-05-06 12:00 51.89167 -2.15862 124 ft 0 kts 59°
2026-05-06 12:03 51.89167 -2.15861 124 ft 0 kts 59°
2026-05-06 12:03 51.89167 -2.15862 124 ft 0 kts 59°
2026-05-06 12:10 51.89171 -2.15852 97 ft 4 kts 54°
2026-05-06 12:10 51.89210 -2.15816 96 ft 9 kts
2026-05-06 12:10 51.89293 -2.15833 96 ft 14 kts 352°
2026-05-06 12:11 51.89364 -2.15875 93 ft 12 kts 315°
2026-05-06 12:11 51.89357 -2.16005 89 ft 15 kts 216°
2026-05-06 12:11 51.89290 -2.16072 94 ft 11 kts 218°
2026-05-06 12:11 51.89218 -2.16160 94 ft 16 kts 214°
2026-05-06 12:12 51.89120 -2.16269 95 ft 16 kts 215°
2026-05-06 12:12 51.89046 -2.16368 94 ft 10 kts 254°
2026-05-06 12:12 51.89035 -2.16425 94 ft 5 kts 249°
2026-05-06 12:12 51.89031 -2.16447 95 ft 0 kts 254°
2026-05-06 12:13 51.89015 -2.16496 96 ft 7 kts 201°
2026-05-06 12:13 51.88969 -2.16500 94 ft 8 kts 182°
2026-05-06 12:13 51.88915 -2.16512 94 ft 7 kts 210°
2026-05-06 12:13 51.88887 -2.16550 93 ft 0 kts 232°
2026-05-06 12:14 51.88861 -2.16636 92 ft 11 kts 256°
2026-05-06 12:14 51.88857 -2.16694 93 ft 0 kts 267°
2026-05-06 12:16 51.88860 -2.16740 94 ft 9 kts 283°
2026-05-06 12:16 51.88879 -2.16790 95 ft 0 kts 38°
2026-05-06 12:17 51.88946 -2.16708 95 ft 35 kts 36°
2026-05-06 12:17 51.89268 -2.16340 94 ft 77 kts 33°
2026-05-06 12:18 51.89764 -2.15772 221 ft 99 kts 34°
2026-05-06 12:18 51.90404 -2.15149 388 ft 94 kts 18°
2026-05-06 12:18 51.90898 -2.15471 168 ft 126 kts 303°
2026-05-06 12:18 51.91071 -2.16767 298 ft 113 kts 269°
2026-05-06 12:19 51.90887 -2.18091 194 ft 122 kts 251°
2026-05-06 12:19 51.90610 -2.19362 265 ft 115 kts 251°
2026-05-06 12:19 51.90337 -2.20800 259 ft 144 kts 253°
2026-05-06 12:19 51.90029 -2.22430 265 ft 157 kts 253°
2026-05-06 12:20 51.89664 -2.24016 437 ft 143 kts 234°
2026-05-06 12:20 51.88759 -2.24825 206 ft 156 kts 185°
2026-05-06 12:20 51.87707 -2.24588 149 ft 154 kts 166°
2026-05-06 12:20 51.87023 -2.24344 249 ft 145 kts 166°
2026-05-06 12:21 51.86165 -2.23808 346 ft 135 kts 137°
2026-05-06 12:21 51.85536 -2.22727 494 ft 130 kts 129°
2026-05-06 12:21 51.84994 -2.21580 648 ft 125 kts 111°
2026-05-06 12:21 51.84971 -2.20551 741 ft 118 kts 66°
2026-05-06 12:22 51.85516 -2.19839 872 ft 116 kts 19°
2026-05-06 12:22 51.86078 -2.18984 1012 ft 119 kts 71°
2026-05-06 12:22 51.86050 -2.17634 1195 ft 121 kts 90°
2026-05-06 12:22 51.86018 -2.16307 1382 ft 115 kts 81°
2026-05-06 12:23 51.86093 -2.15024 1564 ft 115 kts 79°
2026-05-06 12:23 51.86153 -2.13901 1726 ft 116 kts 81°
2026-05-06 12:23 51.86234 -2.12603 1907 ft 116 kts 80°
2026-05-06 12:23 51.86307 -2.11291 2021 ft 122 kts 81°
2026-05-06 12:24 51.86398 -2.09872 2032 ft 130 kts 78°
2026-05-06 12:24 51.86513 -2.08401 2030 ft 136 kts 79°
2026-05-06 12:24 51.86644 -2.06870 2033 ft 138 kts 78°
2026-05-06 12:24 51.86771 -2.05435 2026 ft 142 kts 79°
2026-05-06 12:25 51.86923 -2.03859 2026 ft 142 kts 77°
2026-05-06 12:25 51.87018 -2.02792 2028 ft 142 kts 78°
2026-05-06 12:25 51.87074 -2.02157 2026 ft 141 kts 78°
2026-05-06 12:25 51.87209 -2.00592 2027 ft 140 kts 78°
2026-05-06 12:26 51.87193 -1.99134 2006 ft 145 kts 104°
2026-05-06 12:26 51.86456 -1.98003 2004 ft 155 kts 156°
2026-05-06 12:26 51.85532 -1.97760 2018 ft 153 kts 171°
2026-05-06 12:26 51.84571 -1.97562 2023 ft 153 kts 170°
2026-05-06 12:27 51.83517 -1.97337 2026 ft 153 kts 170°
2026-05-06 12:27 51.82576 -1.97126 2027 ft 152 kts 170°
2026-05-06 12:27 51.81646 -1.96924 2030 ft 152 kts 170°
2026-05-06 12:27 51.80594 -1.96684 2029 ft 153 kts 170°
2026-05-06 12:28 51.79532 -1.96437 2028 ft 155 kts 169°
2026-05-06 12:28 51.78453 -1.96217 2032 ft 157 kts 171°
2026-05-06 12:28 51.77364 -1.95989 2027 ft 158 kts 170°
2026-05-06 12:28 51.76478 -1.95789 2027 ft 156 kts 170°
2026-05-06 12:29 51.76340 -1.95758 2029 ft 156 kts 169°
2026-05-06 12:29 51.76269 -1.95742 2031 ft 156 kts 170°
2026-05-06 12:29 51.75621 -1.95600 2029 ft 151 kts 170°
2026-05-06 12:29 51.74613 -1.95392 2013 ft 141 kts 170°
2026-05-06 12:30 51.73668 -1.95200 2014 ft 135 kts 170°
2026-05-06 12:30 51.72779 -1.95035 2015 ft 120 kts 170°
2026-05-06 12:30 51.71994 -1.94889 2017 ft 109 kts 170°
2026-05-06 12:30 51.71412 -1.94786 2013 ft 107 kts 170°
2026-05-06 12:31 51.70690 -1.94660 2011 ft 104 kts 171°
2026-05-06 12:31 51.69977 -1.94528 2015 ft 102 kts 170°
2026-05-06 12:31 51.69298 -1.94407 2017 ft 100 kts 171°
2026-05-06 12:31 51.68622 -1.94280 2014 ft 96 kts 169°
2026-05-06 12:32 51.67970 -1.94159 2013 ft 92 kts 170°
2026-05-06 12:32 51.67350 -1.94043 2009 ft 85 kts 165°
2026-05-06 12:32 51.66947 -1.93465 2026 ft 82 kts 126°
2026-05-06 12:32 51.66472 -1.92674 2153 ft 113 kts 126°
2026-05-06 12:33 51.65889 -1.91623 2278 ft 139 kts 125°
2026-05-06 12:33 51.65878 -1.91603 2279 ft 139 kts 125°
2026-05-06 12:33 51.65298 -1.90551 2229 ft 161 kts 127°
2026-05-06 12:33 51.64536 -1.89140 2146 ft 172 kts 126°
2026-05-06 12:34 51.63743 -1.87651 2048 ft 177 kts 126°
2026-05-06 12:34 51.62956 -1.86180 2027 ft 174 kts 126°
2026-05-06 12:34 51.62169 -1.84708 2029 ft 173 kts 127°
2026-05-06 12:34 51.61391 -1.83230 2026 ft 173 kts 126°
2026-05-06 12:35 51.60768 -1.82033 2027 ft 173 kts 126°
2026-05-06 12:35 51.59985 -1.80562 2027 ft 173 kts 127°
2026-05-06 12:35 51.59269 -1.79209 2027 ft 173 kts 126°
2026-05-06 12:35 51.58806 -1.78321 2026 ft 171 kts 126°
2026-05-06 12:36 51.58073 -1.76926 2019 ft 172 kts 126°
2026-05-06 12:36 51.57295 -1.75456 2005 ft 172 kts 126°
2026-05-06 12:36 51.56517 -1.73989 2006 ft 172 kts 127°
2026-05-06 12:36 51.55738 -1.72522 2006 ft 173 kts 126°
2026-05-06 12:37 51.54960 -1.71057 1998 ft 172 kts 126°
2026-05-06 12:37 51.54182 -1.69591 1997 ft 172 kts 126°
2026-05-06 12:37 51.53462 -1.68232 1993 ft 171 kts 126°
2026-05-06 12:37 51.53357 -1.68034 1994 ft 171 kts 126°
2026-05-06 12:38 51.52621 -1.66639 1996 ft 170 kts 126°
2026-05-06 12:38 51.51856 -1.65184 1992 ft 171 kts 127°
2026-05-06 12:38 51.51189 -1.63638 1971 ft 167 kts 108°
2026-05-06 12:38 51.50891 -1.61852 1986 ft 166 kts 103°
2026-05-06 12:39 51.50356 -1.60198 1991 ft 169 kts 124°
2026-05-06 12:39 51.49685 -1.58996 1995 ft 170 kts 130°
2026-05-06 12:39 51.48861 -1.57634 2240 ft 156 kts 130°
2026-05-06 12:39 51.48099 -1.56533 2671 ft 143 kts 137°
2026-05-06 12:40 51.47770 -1.56152 2737 ft 143 kts 142°
2026-05-06 12:40 51.46879 -1.55238 2229 ft 168 kts 145°
2026-05-06 12:40 51.45844 -1.54230 1628 ft 181 kts 147°
2026-05-06 12:40 51.44794 -1.53311 1351 ft 164 kts 151°
2026-05-06 12:41 51.43785 -1.52501 925 ft 164 kts 153°
2026-05-06 12:41 51.42749 -1.51662 488 ft 161 kts 153°
2026-05-06 12:41 51.41964 -1.50725 586 ft 130 kts 117°
2026-05-06 12:41 51.41744 -1.49475 724 ft 106 kts 103°
2026-05-06 12:42 51.41742 -1.49467 725 ft 106 kts 103°
2026-05-06 12:42 51.41373 -1.48669 851 ft 103 kts 152°
2026-05-06 12:42 51.40749 -1.48661 1006 ft 103 kts 185°
2026-05-06 12:42 51.40077 -1.48372 1186 ft 103 kts 139°
2026-05-06 12:43 51.39480 -1.47773 1393 ft 100 kts 144°
2026-05-06 12:43 51.38857 -1.47220 1602 ft 103 kts 145°
2026-05-06 12:43 51.38233 -1.46662 1808 ft 104 kts 145°
2026-05-06 12:44 51.37668 -1.46145 1975 ft 105 kts 145°
2026-05-06 12:44 51.37004 -1.45508 1990 ft 117 kts 143°
2026-05-06 12:44 51.36279 -1.44806 1993 ft 129 kts 144°
2026-05-06 12:45 51.35491 -1.44050 1994 ft 139 kts 144°
2026-05-06 12:45 51.34644 -1.43247 2000 ft 143 kts 144°
2026-05-06 12:45 51.33022 -1.41688 1973 ft 123 kts 144°
2026-05-06 12:46 51.32317 -1.41003 1995 ft 117 kts 144°
2026-05-06 12:46 51.31650 -1.40249 2007 ft 121 kts 138°
2026-05-06 12:46 51.30947 -1.39418 2012 ft 130 kts 138°
2026-05-06 12:46 51.30196 -1.38540 2018 ft 137 kts 138°
2026-05-06 12:47 51.29419 -1.37628 2019 ft 140 kts 139°
2026-05-06 12:47 51.28638 -1.36684 2019 ft 142 kts 139°
2026-05-06 12:47 51.28308 -1.36281 2018 ft 143 kts 138°
2026-05-06 12:48 51.27785 -1.35646 2018 ft 142 kts 138°
2026-05-06 12:48 51.26798 -1.34479 2003 ft 128 kts 139°
2026-05-06 12:48 51.26102 -1.33659 1997 ft 121 kts 138°
2026-05-06 12:48 51.25432 -1.32890 1999 ft 118 kts 138°
2026-05-06 12:49 51.24775 -1.32124 2000 ft 116 kts 138°
2026-05-06 12:49 51.24137 -1.31367 1998 ft 113 kts 137°
2026-05-06 12:49 51.23859 -1.31046 1998 ft 113 kts 139°
2026-05-06 12:49 51.23441 -1.30568 1997 ft 111 kts 138°
2026-05-06 12:50 51.22818 -1.29843 2002 ft 112 kts 138°
2026-05-06 12:50 51.22176 -1.29115 2001 ft 113 kts 138°
2026-05-06 12:50 51.21529 -1.28388 2008 ft 115 kts 139°
2026-05-06 12:50 51.20883 -1.27647 2010 ft 113 kts 139°
2026-05-06 12:51 51.20260 -1.26904 2013 ft 114 kts 138°
2026-05-06 12:51 51.19638 -1.26112 1932 ft 118 kts 129°
2026-05-06 12:51 51.18987 -1.25073 1555 ft 141 kts 139°
2026-05-06 12:51 51.18508 -1.24318 1405 ft 126 kts 121°
2026-05-06 12:52 51.18150 -1.23095 1186 ft 123 kts 98°
2026-05-06 12:52 51.18302 -1.22019 1373 ft 93 kts 44°
2026-05-06 12:52 51.18610 -1.21526 1254 ft 93 kts 38°
2026-05-06 12:52 51.18947 -1.21121 1258 ft 88 kts 24°
2026-05-06 12:53 51.19555 -1.21038 1140 ft 95 kts 355°
2026-05-06 12:53 51.20248 -1.21209 945 ft 114 kts 347°
2026-05-06 12:53 51.20762 -1.22014 972 ft 113 kts 279°
2026-05-06 12:53 51.20656 -1.23081 1191 ft 88 kts 271°
2026-05-06 12:54 51.20486 -1.23946 1310 ft 81 kts 239°
2026-05-06 12:54 51.20012 -1.24529 1213 ft 92 kts 217°
2026-05-06 12:54 51.19370 -1.25194 980 ft 129 kts 212°
2026-05-06 12:54 51.18567 -1.25268 1065 ft 101 kts 158°
2026-05-06 12:55 51.18331 -1.24615 1128 ft 57 kts 43°
2026-05-06 12:55 51.18692 -1.24144 856 ft 73 kts 34°
2026-05-06 12:55 51.19092 -1.23684 636 ft 65 kts 32°
2026-05-06 12:55 51.19398 -1.23350 559 ft 45 kts 36°
2026-05-06 12:56 51.19637 -1.23120 517 ft 36 kts 27°
2026-05-06 12:56 51.19757 -1.23023 509 ft 5 kts 309°
2026-05-06 12:56 51.19728 -1.23073 512 ft 6 kts 208°
2026-05-06 12:56 51.19701 -1.23099 513 ft 14 kts 211°
2026-05-06 12:57 51.19596 -1.23195 520 ft 15 kts 208°
2026-05-06 12:57 51.19522 -1.23259 528 ft 7 kts 208°
2026-05-06 12:57 51.19462 -1.23348 534 ft 11 kts 221°
2026-05-06 12:57 51.19416 -1.23422 533 ft 13 kts 229°
2026-05-06 12:58 51.19373 -1.23547 528 ft 10 kts 255°
2026-05-06 12:58 51.19367 -1.23621 525 ft 11 kts 264°
2026-05-06 12:58 51.19348 -1.23740 522 ft 7 kts 250°
2026-05-06 12:58 51.19354 -1.23772 522 ft 5 kts 334°
2026-05-06 12:59 51.19369 -1.23844 525 ft 7 kts 259°
2026-05-06 12:59 51.19354 -1.23945 528 ft 5 kts 257°
2026-05-06 12:59 51.19343 -1.23964 529 ft 2 kts 193°
2026-05-06 12:59 51.19341 -1.23964 529 ft 0 kts 184°